Showing default

OPS 4412 (TRANSIT 9), 801

Orbit data source: Space-Track

OPS 4412 (TRANSIT 9), 801 is a payload satellite owned by USN BuWeps (US) in LEO that was launched on Thu, 04 Jun 1964 UTC via an SCOUT X-4 launch vehicle from the Air Force Western Test Range (AFWTR). Payloads include a variety of satellites, spacecraft, and rockets equipped with specific instruments for various scientific and technological missions. These include communications satellites like Starlink; space stations such as the ISS; scientific satellites like the Hubble; Earth observation satellites from companies like Planet Labs, Umbra, and HawkEye 360; GPS; miniature CubeSats for education and research; and military/defense satellites.

Loading next visibility...
OPS 4412 (TRANSIT 9) details
Identifier
801, 1964-026A
Orbit
LEO
Last TLE update1 day ago
Origin
Flag of USUSN BuWeps (US)
ManufacturerAPL
MissionDefense Navigation
Bus & MotorTRANSIT 5, Unknown motor
Mass54 kg wet, 54 kg dry
Launch date (UTC)
1964-06-04 (61 years ago)
Launch vehicle
SCOUT X-4
Launch site
Air Force Western Test Range (AFWTR)
Object type
Payload
Rocket body
Debris
Shape & HBROct Cyl + 4 Pan + 1 Rod, 30 m
Radar Cross Section7.568 m², Large (>1 m²)

Expand to show TLE details & history

TLE from 1 day ago
0 OPS 4412 (TRANSIT 9)
1 00801U 64026A   25022.38485942  .00001497  00000-0  74171-3 0  9995
2 00801  90.4613 161.6213 0046245 233.1415 126.5529 14.16415639113829
Epoch: 2025-01-22T09:14Z
Definitive object data (Epoch: 2025-01-22T09:14:11.853Z)
Latitude-0.00007°
Longitude-98.90559°
Altitude860.526 km
Speed7.412 km/s
True Right ascension10h 46m 29s
True Declination0° 00' 00"
Sunlit
Object was in full shadow at TLE epoch
Visualization TLE readout
Latitude-4.81505°
Longitude81.12011°
Altitude817.401 km
Speed7.456 km/s
Apparent Right ascension00h 51m 16s
Apparent Declination-26° 35' 23"
Sunlit
Object is in daylight
Visualization observer readout
Local Sidereal Time16:08:17
Azimuth87.361° E
Elevation-47.297°
Doppler factor1
Orbital elements
Apogee altitude867.809 km
Perigee altitude801.1 km
Semi-major axis7,212.591 km
Eccentricity0.0046245
Inclination90.4613°
RAAN161.6213°
Arg. of periapsis233.1415°
True anomaly126.97713°
Mean anomaly126.5529°
Eccentric anomaly126.76516°
Mean motion3.54329 °/min
BSTAR0.00074171
Orbital period101.6 mins
Loading maneuver chart data...
Loading historical data...
Loading historical data...
Loading historical data...
Loading historical data...
Loading historical data...
Loading historical data...
Loading historical data...

OPS 4412 (TRANSIT 9) Visibility forecast

Observer location: undefined°, undefined

Span
Click to sort rows by Start time (UTC) header in descending order
Start Az.
Max El. time (UTC)
Max El. Az.
Max El.
End time (UTC)
End Az.
10 mins2025-01-23 21:24:58.343Z4.557° NNE2025-01-23 21:29:58.343Z36.318° NE44.187°2025-01-23 21:34:58.343Z180.634° SSW
9 mins2025-01-24 08:49:58.343Z145.666° SSE2025-01-24 08:53:58.343Z86.98° E34.361°2025-01-24 08:58:58.343Z12.887° NNE
7 mins2025-01-24 10:32:58.343Z238.022° WSW2025-01-24 10:35:58.343Z279.72° WNW21.92°2025-01-24 10:39:58.343Z327.525° NNW
|